CZ-6A DEB, 64652

Orbit data source: Space-Track

CZ-6A DEB, 64652 is space debris in LEO originally from a launch on Tue, 06 Aug 2024 UTC launched from the Taiyaun Space Center, China (TSC). Debris objects in space refer to the collection of defunct objects orbiting the Earth. Examples of debris include non-operational satellites, rocket bodies, and fragments generated from explosions, collisions, or faulty payload assembly.

Loading next visibility...
Identifier
64652, 2024-140AES
Orbit
LEO
Country
Flag of CNCN / PRC
Related business
Manufacturer
SAST
Mission
Spacecraft
Bus & Motor
Unknown
Mass
Unknown
Launch date (UTC)
2024-08-06 (2 years ago)
Launch vehicle
Unknown
Launch site
Taiyaun Space Center, China (TSC)
Object type
Payload
Rocket body
Debris
Shape & HBR
Unknown shape, 0.1 m
Radar Cross Section
Medium (>0.1 m² and <1 m²)

Expand to show TLE details & history
Last TLE update: 17 hours ago

TLE from 17 hours ago
0 CZ-6A DEB
1 64652U 24140AES 26171.26555941  .00001331  00000-0  38192-3 0  9992
2 64652  88.9145 264.3878 0050345 315.7680  43.9504 14.43690509 89479
Epoch: 2026-06-20T06:22Z
TLE epoch observation values (Epoch: 2026-06-20T06:22:24.333Z)
Latitude
0.00008°
Longitude
-99.69625°
Altitude
723.677 km
Speed
7.507 km/s
True Right ascension
17h 37m 33s
True Declination
0° 00' 00"
Sunlit
Object was in full shadow at epoch
Visualization orbit readout
Latitude
Unknown
Longitude
Unknown
Altitude
Unknown
Speed
Unknown
Apparent Right ascension
Unknown
Apparent Declination
Unknown
Sunlit
N/A
Visualization observer readout
Local Sidereal Time
10:17:12
Azimuth
Unknown
Elevation
Unknown
Doppler factor
Unknown
Orbital elements
Apogee altitude
779.101 km
Perigee altitude
707.396 km
Semi-major axis
7,121.386 km
Eccentricity
0.00503
Inclination
88.9145°
RAAN
264.3878°
Arg. of periapsis
315.768°
True anomaly
44.35262°
Mean anomaly
43.9504°
Eccentric anomaly
44.15133°
Mean motion
3.61157 °/min
Orbital period
99.68 mins
BSTAR
0.00038192
Loading maneuver chart data...
Computing Atmospheric mass density...
Loading historical data...
Loading historical data...
Loading historical data...
Loading historical data...
Loading historical data...
Loading historical data...
Loading historical data...

Documentation

Showing up to 5 results
|